San Luis Obispo, CA

9:03 AM PDT on April 21, 2018 (GMT -0700)
San Luis Obispo County-McChesney

Weather History for KSBP - September, 2013

Change the Weather History Date:

Sunday, September 29, 2013

  Actual Average Record
Temperature  
Mean Temperature 67 °F -  
Max Temperature 84 °F 80 °F 100 °F (1984)
Min Temperature 50 °F 53 °F 42 °F (1948)
Cooling Degree Days 2    
Growing Degree Days 17 (Base 50)    
Moisture  
Dew Point 44 °F    
Average Humidity 53    
Maximum Humidity 87    
Minimum Humidity 18    
Precipitation  
Precipitation 0.00 in - - ()
Sea Level Pressure  
Sea Level Pressure 30.03 in    
Wind  
Wind Speed 4 mph (NNW)    
Max Wind Speed 21 mph    
Max Gust Speed 22 mph    
Visibility 10 miles    
Events      
Averages and records for this station are not official NWS values.
T = Trace of Precipitation, MM = Missing Value Source: NWS Daily Summary

Daily Weather History Graph

Daily Weather History Graph

Search for Another Location

Airport or City:

Astronomy

Sep. 29, 2013 Rise Set
Actual Time 6:56 AM PDT 6:48 PM PDT
Civil Twilight 6:30 AM PDT 7:14 PM PDT
Nautical Twilight 6:01 AM PDT 7:43 PM PDT
Astronomical Twilight 5:31 AM PDT 8:13 PM PDT
Moon 1:52 AM PDT (9/29) 3:39 PM PDT (9/29)
Length of Visible Light 12h 43m
Length of Day
11h 52m
Waning Crescent, 26% of the Moon is Illuminated
Sep 29
Waning Crescent
Oct 4
New
Oct 11
First Quarter
Oct 18
Full
Oct 26
Last Quarter

Hourly Weather History & Observations

Time (PDT) Temp. Dew Point Humidity Pressure Visibility Wind Dir Wind Speed Gust Speed Precip Events Conditions
12:56 AM 54.0 °F 37.0 °F 53% 30.06 in 10.0 mi Calm Calm - N/A   Clear
1:56 AM 52.0 °F 36.0 °F 54% 30.07 in 10.0 mi Calm Calm - N/A   Clear
2:56 AM 52.0 °F 37.9 °F 59% 30.06 in 10.0 mi SE 3.5 mph - N/A   Clear
3:56 AM 51.1 °F 36.0 °F 56% 30.03 in 10.0 mi East 4.6 mph - N/A   Clear
4:56 AM 51.1 °F 36.0 °F 56% 30.01 in 10.0 mi Calm Calm - N/A   Clear
5:56 AM 51.1 °F 41.0 °F 68% 30.04 in 10.0 mi Calm Calm - N/A   Clear
6:56 AM 50.0 °F 37.9 °F 63% 30.04 in 10.0 mi Calm Calm - N/A   Clear
7:56 AM 53.1 °F 42.1 °F 66% 30.06 in 10.0 mi SE 4.6 mph - N/A   Clear
8:56 AM 62.1 °F 43.0 °F 50% 30.06 in 10.0 mi Calm Calm - N/A   Clear
9:56 AM 68.0 °F 41.0 °F 37% 30.08 in 10.0 mi Calm Calm - N/A   Clear
10:56 AM 78.1 °F 30.9 °F 18% 30.06 in 10.0 mi Calm Calm - N/A   Clear
11:56 AM 84.0 °F 39.0 °F 20% 30.04 in 10.0 mi NW 6.9 mph - N/A   Clear
12:56 PM 82.0 °F 43.0 °F 25% 30.02 in 10.0 mi NW 12.7 mph - N/A   Clear
1:56 PM 81.0 °F 39.9 °F 23% 30.00 in 10.0 mi NW 19.6 mph - N/A   Clear
2:56 PM 80.1 °F 39.9 °F 24% 29.99 in 10.0 mi NW 20.7 mph - N/A   Clear
3:56 PM 78.1 °F 44.1 °F 30% 29.99 in 10.0 mi NNW 18.4 mph - N/A   Clear
4:56 PM 73.9 °F 50.0 °F 43% 30.00 in 10.0 mi NNW 16.1 mph - N/A   Clear
5:56 PM 72.0 °F 51.1 °F 48% 30.00 in 10.0 mi NW 13.8 mph 20.7 mph N/A   Clear
6:56 PM 64.0 °F 54.0 °F 70% 30.01 in 10.0 mi NNW 16.1 mph 21.9 mph N/A   Clear
7:56 PM 63.0 °F 54.0 °F 72% 30.04 in 10.0 mi Calm Calm - N/A   Clear
8:56 PM 61.0 °F 54.0 °F 78% 30.03 in 10.0 mi NNW 4.6 mph - N/A   Clear
9:56 PM 59.0 °F 55.0 °F 87% 30.04 in 10.0 mi NW 3.5 mph - N/A   Clear
10:56 PM 59.0 °F 54.0 °F 83% 30.04 in 10.0 mi Calm Calm - N/A   Clear
11:56 PM 55.9 °F 51.1 °F 84% 30.03 in 10.0 mi Calm Calm - N/A   Clear